Location: New Greens
(51.7702°N, 0.3379°W)
Time: 10:12:07
(UTC+00:00)

Envisat - Pass Details

Date: 29 January 2019
Orbit: 764 x 766 km, 98.1° (Epoch: 15 October)

Event Time Altitude Azimuth Distance (km) Brightness Sun altitude
Rises 19:09:19 0° 183° (S) 3,222 6.3 -22.4°
Reaches altitude 10° 19:11:43 10° 189° (S) 2,300 5.6 -22.7°
Maximum altitude 19:16:33 45° 262° (W) 1,048 4.1 -23.5°
Drops below altitude 10° 19:21:26 10° 335° (NNW) 2,316 5.8 -24.2°
Sets 19:23:52 0° 342° (NNW) 3,246 6.5 -24.6°
